AL YAH 3

Last updated on Thu Oct 30 2025 00:02:51 GMT+0000 (Coordinated Universal Time)

1 43174U 18012A 25302.32435027 -.00000144 00000+0 00000+0 0 9997 2 43174 0.9501 85.9376 0003007 138.0815 270.5971 1.00271904 28533
UTC large
Height (km)
Speed (km/s)
/
Latitude / Longitude
Inclination (degrees)
Orbital Period (minutes)
Azimuth
Elevation
Range (km)
Doppler Factor

Next 0 passes for location: London (51.5072 / 0.1276)

Sorry there are no passes over London.